Wind_Speed
27 27 29 31 34 37 32 34 22 33 29 30 26 23 16 12 15 14 13 12 12 13 14 16 17 19 23 25 26 30 31 34 37 41 37 34 33 25 29 30 26 29 19 13
32 31 35 43 37 27 29 32 34 35 33 27 22 15 12 13 14 14 14 12 10 11 12 13 13 15 19 22 26 26 28 31 33 35 36 42 40 35 34 33 27 21 12 11
29 25 23 23 23 20 20 24 26 28 24 23 19 16 14 13 14 15 13 11 10 9 11 10 10 11 15 19 22 24 26 27 29 31 31 33 33 28 35 34 33 30 30 26
23 22 12 20 18 17 15 11 10 17 23 19 15 13 12 13 14 13 11 11 10 9 8 8 8 10 12 16 18 19 21 23 24 25 26 27 25 27 29 29 27 27 28 29
15 19 24 25 22 21 21 20 14 15 14 14 15 14 14 14 14 13 11 12 10 8 6 5 7 8 10 12 15 16 15 17 18 19 20 20 20 22 22 22 22 23 25 24
20 9 3 4 5 5 6 16 9 10 13 15 15 15 14 16 17 15 14 13 10 8 6 4 6 8 9 10 12 13 13 15 17 18 19 20 22 22 23 23 24 25 24 23
23 16 17 23 18 19 10 11 10 7 10 13 14 14 14 15 16 16 15 12 10 7 6 4 6 8 9 11 12 12 14 16 17 19 20 22 23 24 24 25 26 26 26 25
16 13 13 22 22 22 19 15 12 11 15 17 18 19 14 15 15 16 14 11 9 6 6 4 6 7 8 9 9 10 12 15 16 17 18 19 21 22 23 24 25 24 24 24
16 14 19 15 13 11 11 11 19 21 18 19 19 19 15 14 13 13 14 12 7 5 6 6 6 7 7 6 7 9 12 14 15 17 18 19 21 21 21 22 22 22 22 23
28 30 29 24 19 16 21 18 20 21 19 18 18 18 17 15 14 13 13 12 7 5 7 7 6 5 5 6 7 9 11 14 16 19 21 22 23 23 23 23 24 24 24 24
25 23 20 20 20 19 17 17 18 18 15 13 13 14 14 12 12 12 12 9 4 5 7 6 4 3 5 8 10 13 15 17 18 20 22 23 24 24 25 25 25 27 27 27
18 15 16 15 15 14 14 14 14 12 9 8 7 6 6 10 12 11 11 8 5 7 6 4 3 4 7 9 12 15 17 19 20 22 23 25 27 29 29 30 29 28 29 29
20 19 19 18 15 14 13 13 11 8 6 4 3 6 9 12 13 11 7 6 6 5 4 3 4 7 9 12 14 16 18 20 22 25 27 29 30 31 31 33 35 35 35 36
23 22 21 18 15 14 13 12 9 7 6 6 8 10 11 11 10 7 6 6 6 5 3 4 7 10 13 16 19 22 25 27 29 31 32 32 32 33 34 34 34 34 36 36
22 19 18 18 15 14 13 9 7 8 9 9 10 10 11 10 8 8 10 9 7 5 5 8 11 14 18 21 24 28 30 31 32 34 35 36 36 35 35 35 35 36 36 37
18 19 18 17 16 14 10 7 8 9 9 9 8 7 6 7 9 9 9 8 7 6 7 11 14 18 21 24 26 29 30 32 33 35 36 37 38 40 41 43 43 43 44 44
16 16 14 15 14 10 8 11 11 10 9 8 8 9 10 9 9 10 9 8 7 8 10 13 17 21 24 26 28 30 31 34 36 37 37 37 38 40 40 41 41 42 43 44
16 16 15 14 11 10 11 11 10 10 9 9 10 10 10 10 11 10 10 10 10 11 14 17 20 23 25 27 29 31 32 33 34 35 36 37 37 38 39 39 40 40 40 40
13 13 13 13 12 12 12 11 10 11 10 10 11 11 12 11 11 11 11 11 13 14 17 21 23 25 27 30 32 33 34 34 36 36 36 36 36 37 38 38 39 40 41 42
13 12 11 10 10 11 12 13 12 12 12 14 13 12 12 12 12 12 12 14 16 18 21 24 26 28 30 32 33 34 35 35 35 34 35 36 36 37 38 39 41 41 41 40
11 11 11 11 12 13 13 13 12 12 13 15 15 14 14 13 13 13 15 17 19 21 24 26 28 30 31 33 34 35 35 35 35 35 36 36 36 38 39 40 40 40 39 39
10 9 9 9 9 9 10 11 11 11 13 14 14 14 14 14 15 16 18 20 22 24 26 28 30 31 33 34 34 35 35 35 35 35 36 37 38 39 39 39 39 39 39 39
9 7 7 8 8 8 8 9 10 10 12 14 14 15 15 16 17 19 21 22 24 26 28 30 31 33 34 34 35 35 35 35 35 36 37 38 39 39 39 39 39 40 40 39
7 7 6 7 8 9 10 11 12 14 15 15 15 15 17 19 20 21 23 24 26 28 29 31 33 33 33 34 34 35 35 35 35 36 37 38 38 38 39 39 39 39 39 39
8 7 7 9 10 12 13 14 14 14 15 15 15 16 17 19 21 23 24 26 27 28 30 32 32 33 34 34 34 35 35 34 35 36 37 37 37 37 37 38 38 38 38 38
8 8 9 10 11 13 14 14 14 15 15 15 15 17 19 20 22 23 25 26 27 31 31 30 32 33 34 34 34 34 33 34 35 36 36 36 37 37 37 37 37 37 37 36
8 8 9 10 11 12 12 12 13 14 16 16 18 18 19 21 22 23 25 27 29 28 30 32 33 33 33 33 33 32 33 33 34 34 35 35 36 36 36 36 36 36 36 34
Wind_Direction
288 280 274 275 279 282 285 284 263 280 279 287 297 301 300 305 297 294 296 317 333 331 342 343 351 353 3 4 18 21 24 29 33 36 48 53 66 84 112 128 162 169 156 170
283 285 283 284 282 273 266 271 270 273 278 277 294 295 298 299 294 292 299 311 323 329 337 341 355 359 14 10 15 22 28 32 36 37 36 40 41 52 69 75 81 95 114 113
282 296 302 285 273 269 275 276 273 264 277 283 284 287 290 284 286 289 295 299 310 324 329 339 357 10 13 15 10 12 20 28 32 36 38 40 43 49 55 55 60 67 80 85
278 291 272 272 268 269 259 280 274 267 270 274 283 291 281 276 280 281 283 288 298 314 327 335 353 8 6 13 7 11 15 21 26 30 31 38 37 39 46 52 54 56 63 68
252 254 260 270 271 273 276 278 272 267 267 275 284 289 286 277 275 276 273 282 288 298 311 324 341 355 4 11 1 3 12 19 23 25 28 33 36 37 40 43 45 48 50 54
240 264 258 258 284 304 305 283 268 276 279 286 289 288 290 275 273 269 263 270 277 286 299 311 335 341 353 359 1 351 9 22 23 23 23 24 26 28 28 28 30 31 32 34
230 237 262 278 275 281 251 274 283 280 278 282 284 283 281 273 270 261 259 260 267 274 279 309 323 334 346 349 354 356 16 25 25 22 24 26 23 20 20 18 18 15 16 15
242 252 265 265 266 252 270 272 285 275 284 271 278 282 286 279 267 263 246 235 258 264 270 297 318 329 343 350 354 12 25 28 24 22 20 18 16 13 12 9 6 4 5 3
235 239 250 270 276 268 259 272 272 275 274 265 267 277 282 279 274 260 234 218 231 261 276 293 314 327 336 4 13 17 16 16 16 15 12 10 7 5 2 359 357 355 353 352
242 250 249 257 266 273 287 281 273 275 271 265 263 268 274 278 270 249 229 213 185 238 275 291 309 323 340 2 14 16 15 10 7 4 1 358 356 355 353 350 349 347 346 342
243 258 258 266 280 280 278 276 278 281 279 265 258 263 273 274 247 220 214 177 165 239 271 285 300 327 353 353 358 360 0 1 357 353 350 347 346 346 344 345 343 340 339 336
274 280 280 276 279 278 277 276 280 281 283 273 259 259 258 226 211 207 188 151 200 237 246 252 287 336 352 352 350 349 348 348 346 345 343 343 343 341 341 340 340 339 336 334
282 281 273 274 277 277 281 279 274 269 256 227 194 194 195 203 200 176 137 205 229 229 232 273 312 333 339 338 340 339 342 343 342 343 343 342 341 339 338 338 338 338 336 334
285 283 269 271 268 273 276 271 266 242 214 202 191 193 191 191 163 152 203 218 217 223 253 294 314 325 329 333 337 338 341 343 344 344 342 338 337 337 338 338 335 333 331 329
275 275 265 259 261 270 268 262 238 218 205 205 199 190 190 177 163 196 210 211 215 240 276 303 316 325 331 336 338 340 340 340 340 337 336 336 336 336 335 332 330 329 328 327
261 259 267 247 253 256 247 229 216 205 202 199 200 205 200 203 207 209 206 215 230 261 294 309 318 324 331 334 334 335 335 333 332 333 333 334 335 333 332 332 332 331 330 329
264 264 248 248 251 236 208 196 193 194 206 219 229 222 212 211 209 210 218 233 255 280 298 310 319 324 327 328 328 328 328 329 331 331 330 330 329 327 327 326 325 326 325 323
246 233 218 206 207 210 200 200 207 214 223 234 226 219 222 219 214 218 232 250 270 289 303 311 314 317 320 320 321 323 326 326 325 326 327 326 323 321 322 322 322 320 318 318
226 216 216 214 202 189 198 219 230 232 234 223 221 229 229 223 225 234 248 267 283 295 301 305 310 313 314 318 322 322 322 325 325 324 321 320 320 321 321 320 319 318 317 316
199 202 201 207 211 216 229 240 245 245 240 229 229 227 233 234 238 249 263 274 284 294 300 304 308 310 314 318 318 320 322 322 320 319 320 321 321 320 319 318 318 318 317 317
181 192 202 208 219 232 240 244 242 236 232 227 231 230 230 239 248 260 270 279 289 295 300 304 307 310 313 315 317 319 319 320 321 320 320 320 320 320 320 320 319 317 316 314
178 194 215 230 240 247 247 246 242 245 235 234 237 237 241 249 259 267 275 285 291 296 299 302 305 309 313 315 317 319 320 320 319 319 320 321 320 320 320 319 318 316 315 315
197 209 221 236 247 251 255 261 257 245 238 238 239 243 251 259 266 274 281 287 291 295 298 302 308 311 313 316 318 319 319 319 320 321 321 321 321 322 321 320 319 318 318 318
215 228 243 256 261 260 259 261 251 243 242 245 250 256 261 268 275 281 285 289 292 297 301 305 308 311 315 317 319 320 320 320 320 320 321 322 322 322 322 322 321 320 320 318
229 239 257 266 264 262 269 268 257 249 250 254 259 266 271 276 280 285 287 290 295 299 302 305 309 314 318 320 320 320 319 319 319 320 322 322 322 323 324 323 322 321 321 319
240 250 263 267 268 272 271 261 249 251 258 264 267 270 273 278 282 284 287 291 296 299 303 309 315 318 319 320 319 318 318 319 321 322 322 323 324 325 325 324 324 323 323 322
252 260 264 268 272 271 263 256 254 255 260 266 270 274 276 278 281 284 289 293 299 305 311 315 317 318 318 318 317 318 319 321 322 323 324 325 326 326 326 326 326 326 325 324
Height
3060 3060 3059 3057 3055 3054 3053 3050 3049 3043 3042 3042 3041 3038 3036 3033 3033 3033 3031 3029 3027 3025 3020 3017 3012 3007 3001 2996 2990 2984 2976 2968 2960 2953 2943 2939 2933 2928 2912 2915 2918 2921 2924 2932
3052 3054 3053 3047 3047 3043 3043 3041 3038 3036 3034 3036 3036 3034 3032 3031 3031 3030 3029 3027 3026 3024 3020 3017 3013 3009 3003 2998 2992 2989 2981 2974 2968 2961 2953 2945 2942 2934 2932 2926 2923 2922 2926 2930
3046 3048 3044 3037 3036 3036 3035 3032 3031 3030 3031 3032 3032 3030 3029 3028 3028 3028 3027 3025 3023 3022 3020 3017 3014 3010 3005 3000 2996 2990 2985 2979 2974 2969 2965 2958 2954 2952 2946 2942 2939 2935 2931 2933
3044 3044 3038 3032 3032 3031 3029 3028 3026 3026 3026 3028 3027 3026 3025 3025 3025 3025 3024 3022 3021 3020 3018 3016 3014 3010 3007 3003 3000 2995 2989 2983 2978 2974 2970 2966 2964 2959 2954 2950 2949 2949 2945 2942
3041 3038 3030 3029 3029 3028 3025 3023 3022 3022 3022 3023 3023 3022 3022 3022 3022 3021 3020 3019 3019 3018 3016 3014 3013 3011 3008 3004 3001 2998 2994 2989 2984 2980 2977 2974 2971 2966 2962 2959 2958 2954 2949 2948
3035 3033 3026 3024 3024 3023 3021 3019 3018 3019 3019 3019 3019 3018 3019 3018 3018 3018 3017 3017 3016 3016 3015 3013 3012 3010 3008 3005 3002 2999 2995 2991 2987 2984 2980 2975 2972 2970 2967 2964 2960 2955 2952 2950
3026 3025 3022 3021 3021 3020 3021 3021 3016 3016 3016 3016 3015 3016 3015 3014 3014 3014 3014 3014 3014 3013 3013 3012 3010 3009 3006 3004 3001 2998 2993 2990 2988 2985 2982 2978 2974 2971 2968 2965 2961 2958 2955 2953
3024 3023 3018 3015 3016 3017 3015 3014 3014 3014 3013 3012 3011 3010 3010 3010 3011 3011 3010 3011 3011 3011 3012 3011 3009 3007 3005 3004 3001 2997 2994 2991 2988 2986 2984 2981 2978 2975 2971 2967 2964 2961 2958 2955
3020 3015 3013 3013 3013 3011 3010 3011 3009 3008 3008 3007 3006 3006 3006 3006 3008 3008 3008 3008 3009 3010 3010 3010 3008 3006 3005 3003 3001 2999 2995 2992 2989 2987 2985 2982 2979 2977 2973 2970 2967 2965 2961 2957
3012 3008 3009 3010 3009 3008 3006 3004 3003 3002 3002 3001 3002 3002 3003 3003 3004 3005 3005 3005 3006 3009 3009 3009 3007 3006 3004 3003 3001 3000 2997 2993 2989 2986 2984 2981 2979 2976 2974 2970 2966 2962 2958 2955
3005 3005 3004 3005 3005 3003 3001 3000 2999 2998 2996 2996 2997 2997 2999 3000 3002 3002 3003 3003 3006 3007 3008 3007 3006 3005 3003 3002 2999 2997 2995 2992 2990 2986 2983 2980 2977 2974 2971 2967 2964 2959 2955 2953
3001 3001 3001 3001 3000 2999 2998 2997 2995 2994 2992 2992 2993 2995 2996 2998 2999 3000 3001 3002 3005 3006 3005 3005 3005 3004 3003 3001 2999 2996 2993 2990 2987 2984 2981 2977 2972 2967 2964 2959 2956 2952 2949 2947
2997 2997 2996 2996 2995 2995 2994 2993 2992 2991 2990 2991 2992 2993 2995 2996 2997 2998 3000 3002 3003 3004 3004 3004 3003 3002 3000 2999 2997 2995 2992 2988 2984 2979 2975 2971 2967 2963 2959 2953 2948 2943 2939 2935
2992 2991 2991 2991 2991 2990 2990 2989 2988 2989 2989 2990 2991 2992 2994 2996 2996 2998 3000 3001 3002 3002 3002 3002 3001 2999 2997 2995 2991 2988 2983 2978 2974 2969 2966 2964 2960 2956 2951 2945 2942 2939 2934 2930
2986 2986 2986 2986 2986 2986 2986 2986 2986 2987 2988 2989 2990 2991 2993 2994 2995 2997 2998 2999 3000 3001 3001 3000 2998 2996 2993 2990 2986 2981 2976 2972 2968 2964 2959 2954 2950 2945 2942 2939 2935 2931 2926 2922
2980 2981 2981 2982 2983 2983 2984 2984 2985 2986 2988 2988 2990 2991 2992 2993 2994 2996 2997 2998 2999 2999 2998 2997 2995 2992 2989 2986 2982 2978 2974 2970 2966 2961 2955 2948 2941 2936 2930 2924 2919 2915 2910 2905
2975 2976 2977 2979 2980 2981 2981 2982 2984 2986 2987 2988 2989 2990 2991 2992 2994 2995 2996 2996 2997 2997 2996 2994 2991 2988 2985 2982 2979 2975 2971 2965 2959 2955 2949 2944 2939 2934 2929 2925 2919 2912 2907 2901
2970 2971 2973 2975 2977 2978 2980 2982 2983 2984 2985 2986 2987 2988 2990 2991 2993 2994 2994 2994 2994 2994 2992 2990 2988 2985 2982 2979 2975 2971 2966 2961 2956 2950 2944 2939 2935 2931 2925 2920 2914 2909 2904 2899
2968 2970 2972 2974 2975 2977 2979 2981 2982 2982 2983 2984 2985 2987 2988 2989 2990 2991 2991 2991 2991 2989 2988 2986 2983 2980 2977 2973 2968 2964 2959 2954 2948 2943 2939 2935 2930 2924 2919 2913 2908 2902 2896 2891
2966 2969 2971 2973 2975 2976 2978 2979 2979 2980 2981 2982 2983 2984 2986 2987 2988 2989 2989 2988 2987 2986 2983 2981 2978 2974 2970 2966 2962 2957 2952 2947 2943 2938 2932 2927 2922 2917 2911 2905 2900 2894 2888 2883
2966 2968 2970 2971 2972 2974 2975 2975 2976 2977 2978 2979 2981 2982 2983 2984 2985 2985 2985 2984 2983 2981 2978 2976 2972 2968 2964 2960 2955 2950 2945 2939 2934 2929 2924 2919 2914 2908 2902 2897 2891 2886 2880 2874
2966 2967 2968 2970 2971 2971 2972 2973 2974 2975 2976 2977 2978 2979 2980 2981 2981 2980 2980 2979 2977 2975 2972 2969 2966 2962 2957 2953 2948 2942 2937 2931 2927 2922 2916 2910 2905 2900 2895 2889 2883 2876 2871 2865
2965 2966 2967 2968 2968 2969 2970 2970 2971 2972 2973 2974 2975 2976 2976 2976 2976 2975 2974 2973 2971 2968 2965 2962 2958 2953 2949 2945 2939 2934 2929 2923 2918 2913 2907 2902 2896 2891 2885 2878 2872 2866 2860 2855
2964 2965 2965 2965 2966 2966 2967 2967 2967 2968 2969 2970 2971 2972 2972 2971 2971 2969 2968 2966 2964 2961 2958 2954 2950 2946 2942 2937 2931 2925 2920 2915 2910 2905 2900 2894 2888 2882 2876 2870 2864 2857 2852 2845
2963 2963 2963 2963 2963 2964 2964 2964 2964 2965 2965 2966 2967 2967 2967 2966 2965 2963 2961 2959 2956 2954 2951 2947 2943 2938 2933 2928 2922 2917 2913 2908 2903 2897 2892 2886 2880 2874 2868 2862 2855 2849 2843 2837
2961 2961 2961 2961 2961 2961 2961 2961 2961 2962 2962 2962 2963 2962 2961 2960 2958 2956 2954 2952 2950 2947 2943 2939 2934 2929 2925 2920 2915 2910 2905 2900 2895 2890 2884 2878 2872 2866 2860 2854 2848 2841 2835 2829
2959 2959 2959 2959 2958 2958 2958 2958 2958 2958 2957 2957 2957 2956 2955 2953 2952 2950 2948 2946 2942 2938 2934 2930 2926 2921 2917 2912 2908 2903 2898 2893 2888 2882 2876 2871 2865 2859 2853 2847 2840 2833 2827 2821